This is the latest recevied weather packets stored in our database for station/object K9TLD. If no packets are shown the sender has not sent any weather packets the latest 10 day(s).
| Time | Temp. | Humidity | Pressure | Rain* | Wind** | Luminosity | Snow |
|---|---|---|---|---|---|---|---|
| 1778203781 | 5° C | 69% | 1012.9 hPa | 0 mm | - | 0 W/m² | - |
| 1778203477 | 5° C | 69% | 1012.6 hPa | 0 mm | - | 0 W/m² | - |
| 1778203175 | 5.56° C | 68% | 1012.6 hPa | 0 mm | - | 0 W/m² | - |
| 1778202873 | 5.56° C | 68% | 1012.6 hPa | 0 mm | - | 0 W/m² | - |
| 1778202570 | 5.56° C | 67% | 1012.7 hPa | 0 mm | - | 1 W/m² | - |
| 1778202267 | 5.56° C | 66% | 1012.6 hPa | 0 mm | - | 1 W/m² | - |
| 1778201964 | 5.56° C | 67% | 1012.6 hPa | 0 mm | - | 2 W/m² | - |
| 1778201661 | 5.56° C | 66% | 1012.6 hPa | 0 mm | - | 4 W/m² | - |
| 1778201358 | 6.11° C | 65% | 1012.5 hPa | 0 mm | - | 5 W/m² | - |
| 1778201053 | 6.11° C | 64% | 1012.6 hPa | 0 mm | - | 7 W/m² | - |
| 1778200750 | 6.11° C | 64% | 1012.6 hPa | 0 mm | - | 9 W/m² | - |
| 1778200447 | 6.11° C | 64% | 1012.4 hPa | 0 mm | - | 11 W/m² | - |
| 1778200144 | 6.11° C | 64% | 1012.4 hPa | 0 mm | - | 13 W/m² | - |
| 1778199840 | 6.11° C | 63% | 1012.7 hPa | 0 mm | - | 16 W/m² | - |
| 1778199537 | 6.11° C | 63% | 1012.6 hPa | 0 mm | - | 18 W/m² | - |
| 1778199233 | 6.67° C | 64% | 1012.5 hPa | 0 mm | - | 20 W/m² | - |
| 1778198929 | 6.67° C | 63% | 1012.4 hPa | 0 mm | - | 23 W/m² | - |
| 1778198626 | 6.67° C | 64% | 1012.4 hPa | 0 mm | - | 25 W/m² | - |
| 1778198322 | 7.22° C | 64% | 1012.4 hPa | 0 mm | - | 30 W/m² | - |
| 1778198020 | 7.22° C | 65% | 1012.4 hPa | 0 mm | - | 35 W/m² | - |
| 1778197717 | 7.22° C | 65% | 1012.5 hPa | 0 mm | - | 49 W/m² | - |
| 1778197413 | 7.22° C | 67% | 1012.3 hPa | 0 mm | - | 40 W/m² | - |
| 1778197110 | 6.67° C | 67% | 1012.1 hPa | 0 mm | - | 49 W/m² | - |
| 1778196808 | 7.22° C | 67% | 1012.3 hPa | 0 mm | - | 40 W/m² | - |
| 1778196506 | 7.22° C | 65% | 1012.3 hPa | 0 mm | - | 60 W/m² | - |
* Rain latest hour (hover to see other rain measurements)
** Current wind speed in m/s (hover to see current wind gust speed)